Simultaneous Nadir Overpasses (SNOs) Predictions

Prediction of SNOs between GOES-15 and METOP-B Satellite Orbit:

Table of predicted SNOs for the next 14.0 days since TLE Epoch: 6/25/2022
Index Date Time (GOES-15) GOES-15 Lat,Lon METOP-B Lat,Lon Distance(km) Time Diff (sec)
1 06/25/2022 17:50:54 -0.21,-128.49 -0.83,-125.66 321.91 80
2 06/27/2022 06:12:34 0.19,-128.46 -0.22,-130.26 204.97 80
3 06/28/2022 05:49:16 0.21,-128.46 0.95,-125.27 363.67 80
4 06/29/2022 18:10:47 -0.19,-128.50 0.08,-129.83 151.26 80
5 06/30/2022 17:47:27 -0.21,-128.50 -1.02,-124.84 417.29 80
6 07/02/2022 06:09:08 0.19,-128.46 -0.01,-129.43 110.21 80
7 07/03/2022 05:45:48 0.21,-128.46 1.10,-124.44 457.88 80
8 07/04/2022 18:07:19 -0.18,-128.49 -0.06,-128.99 57.73 80
9 07/07/2022 06:05:40 0.18,-128.44 0.15,-128.60 17.24 80
